Simultaneous Nadir Overpasses (SNOs) Predictions

Prediction of SNOs between NOAA-19 and METOP-C Satellite Orbit:

Table of predicted SNOs for the next 14.0 days since TLE Epoch: 7/24/2021
Index Date (NOAA-19) Time (NOAA-19) Lat,Lon (NOAA-19) SZA (NOAA-19 ) Date (METOP-C) Time (METOP-C) Lat,Lon (METOP-C) SZA (METOP-C ) Distance(km) Time Diff (sec)
1 07/31/2021 14:13:57 -80.59, 175.46 116.45 07/31/2021 14:15:06 -80.58, 175.31 116.45 3.18 69
2 07/31/2021 15:04:51 80.58, -16.97 63.58 07/31/2021 15:05:46 80.59, -17.11 63.59 3.15 55
3 07/31/2021 15:55:57 -80.59, 150.06 116.43 07/31/2021 15:56:27 -80.59, 150.15 116.41 1.63 30
4 07/31/2021 16:46:52 80.59, -42.72 63.58 07/31/2021 16:47:08 80.58, -42.60 63.59 2.14 16
5 07/31/2021 17:37:57 -80.58, 124.67 116.41 07/31/2021 17:37:49 -80.58, 124.66 116.41 0.47 8
6 07/31/2021 18:28:52 80.59, -68.12 63.60 07/31/2021 18:28:30 80.57, -68.10 63.59 1.44 22
7 07/31/2021 19:19:57 -80.58, 99.27 116.38 07/31/2021 19:19:11 -80.57, 99.17 116.42 2.16 46



Historial Predications of SNOs between NOAA-19 and METOP-C
